�������C�����ː����j�^�v���󋵏��
Date,Time,Cs137(Bq/L),Cs134(Bq/L),�S��(Bq/L)
2016/12/11,00:00,0.86,0.087,ND
2016/12/11,00:10,0.84,0.083,ND
2016/12/11,00:20,0.86,0.067,ND
2016/12/11,00:30,0.86,0.074,ND
2016/12/11,00:40,0.84,0.076,ND
2016/12/11,00:50,0.81,0.068,ND
2016/12/11,01:00,0.84,0.066,ND
2016/12/11,01:10,0.84,0.068,ND
2016/12/11,01:20,0.85,0.069,ND
2016/12/11,01:30,0.83,0.068,ND
2016/12/11,01:40,0.84,0.062,ND
2016/12/11,01:50,0.87,0.063,ND
2016/12/11,02:00,0.86,0.063,ND
2016/12/11,02:10,0.86,0.058,ND
2016/12/11,02:20,0.72,0.085,ND
2016/12/11,02:30,0.71,0.086,ND
2016/12/11,02:40,0.73,0.097,ND
2016/12/11,02:50,0.87,0.068,ND
2016/12/11,03:00,0.88,0.067,8.8
2016/12/11,03:10,0.73,0.10,10
2016/12/11,03:20,0.75,0.11,ND
2016/12/11,03:30,0.78,0.11,ND
2016/12/11,03:40,0.93,0.086,ND
2016/12/11,03:50,0.79,0.11,ND
2016/12/11,04:00,0.79,0.13,ND
2016/12/11,04:10,0.95,0.096,9.6
2016/12/11,04:20,0.96,0.091,11
2016/12/11,04:30,0.96,0.096,13
2016/12/11,04:40,0.95,0.099,12
2016/12/11,04:50,0.97,0.10,11
2016/12/11,05:00,1.0,0.079,ND
2016/12/11,05:10,1.0,0.090,ND
2016/12/11,05:20,0.99,0.094,ND
2016/12/11,05:30,0.97,0.094,ND
2016/12/11,05:40,0.99,0.088,ND
2016/12/11,05:50,1.0,0.087,ND
2016/12/11,06:00,0.98,0.099,10
2016/12/11,06:10,0.99,0.092,9.0
2016/12/11,06:20,1.0,0.087,12
2016/12/11,06:30,1.0,0.082,10
2016/12/11,06:40,1.0,0.085,8.9
2016/12/11,06:50,1.0,0.098,ND
2016/12/11,07:00,1.0,0.10,ND
2016/12/11,07:10,1.0,0.10,ND
2016/12/11,07:20,1.0,0.11,ND
2016/12/11,07:30,0.98,0.12,ND
2016/12/11,07:40,0.96,0.11,ND
2016/12/11,07:50,0.95,0.088,ND
2016/12/11,08:00,0.93,0.089,ND
2016/12/11,08:10,0.92,0.082,ND
2016/12/11,08:20,0.95,0.071,ND
2016/12/11,08:30,0.98,0.069,ND
2016/12/11,08:40,0.99,0.066,ND
2016/12/11,08:50,0.96,0.075,ND
2016/12/11,09:00,0.96,0.064,ND
2016/12/11,09:10,0.93,0.066,ND
2016/12/11,09:20,0.89,0.067,ND
2016/12/11,09:30,0.71,0.092,ND
2016/12/11,09:40,0.84,0.068,ND
2016/12/11,09:50,0.81,0.069,ND
2016/12/11,10:00,0.79,0.072,ND
2016/12/11,10:10,0.79,0.069,ND
2016/12/11,10:20,0.78,0.063,ND
2016/12/11,10:30,0.77,0.062,11
2016/12/11,10:40,0.64,0.074,ND
2016/12/11,10:50,0.63,0.069,ND
2016/12/11,11:00,0.63,0.072,ND
2016/12/11,11:10,0.78,0.044,ND
2016/12/11,11:20,0.80,0.048,ND
2016/12/11,11:30,0.81,0.049,ND
2016/12/11,11:40,0.80,0.054,ND
2016/12/11,11:50,0.80,0.054,ND
2016/12/11,12:00,0.81,0.053,ND
2016/12/11,12:10,0.80,0.063,ND
2016/12/11,12:20,0.79,0.058,ND
2016/12/11,12:30,0.79,0.060,ND
2016/12/11,12:40,0.80,0.062,ND
2016/12/11,12:50,0.64,0.097,ND
2016/12/11,13:00,0.80,0.064,ND
2016/12/11,13:10,0.81,0.057,ND
2016/12/11,13:20,0.80,0.062,ND
2016/12/11,13:30,0.79,0.062,ND
2016/12/11,13:40,0.79,0.060,ND
2016/12/11,13:50,0.78,0.062,ND
2016/12/11,14:00,0.64,0.11,ND
2016/12/11,14:10,0.63,0.12,ND
2016/12/11,14:20,0.63,0.11,8.8
2016/12/11,14:30,0.74,0.076,11
2016/12/11,14:40,0.73,0.070,ND
2016/12/11,14:50,0.78,0.058,ND
2016/12/11,15:00,0.77,0.058,ND
2016/12/11,15:10,0.79,0.057,ND
2016/12/11,15:20,0.79,0.054,ND
2016/12/11,15:30,0.78,0.054,ND
2016/12/11,15:40,0.78,0.056,ND
2016/12/11,15:50,0.77,0.060,ND
2016/12/11,16:00,0.76,0.053,ND
2016/12/11,16:10,0.76,0.051,ND
2016/12/11,16:20,0.78,0.050,ND
2016/12/11,16:30,0.79,0.058,ND
2016/12/11,16:40,0.79,0.062,ND
2016/12/11,16:50,0.80,0.063,ND
2016/12/11,17:00,0.85,0.068,ND
2016/12/11,17:10,0.85,0.070,ND
2016/12/11,17:20,0.85,0.067,ND
2016/12/11,17:30,0.88,0.063,ND
2016/12/11,17:40,0.89,0.068,ND
2016/12/11,17:50,0.91,0.071,ND
2016/12/11,18:00,0.90,0.072,ND
2016/12/11,18:10,0.92,0.067,ND
2016/12/11,18:20,0.95,0.077,ND
2016/12/11,18:30,0.95,0.073,ND
2016/12/11,18:40,0.97,0.068,ND
2016/12/11,18:50,0.99,0.070,ND
2016/12/11,19:00,0.97,0.078,ND
2016/12/11,19:10,0.97,0.084,10
2016/12/11,19:20,0.95,0.090,9.6
2016/12/11,19:30,0.94,0.091,9.3
2016/12/11,19:40,0.96,0.091,ND
2016/12/11,19:50,0.94,0.093,ND
2016/12/11,20:00,0.93,0.096,ND
2016/12/11,20:10,0.93,0.096,ND
2016/12/11,20:20,0.91,0.087,ND
2016/12/11,20:30,0.92,0.085,ND
2016/12/11,20:40,0.87,0.089,ND
2016/12/11,20:50,0.85,0.084,ND
2016/12/11,21:00,0.86,0.073,ND
2016/12/11,21:10,0.86,0.062,ND
2016/12/11,21:20,0.90,0.062,ND
2016/12/11,21:30,0.92,0.059,ND
2016/12/11,21:40,0.94,0.058,ND
2016/12/11,21:50,0.87,0.097,ND
2016/12/11,22:00,1.0,0.056,ND
2016/12/11,22:10,0.89,0.10,ND
2016/12/11,22:20,0.88,0.11,ND
2016/12/11,22:30,0.87,0.11,ND
2016/12/11,22:40,0.97,0.084,ND
2016/12/11,22:50,0.92,0.088,10
2016/12/11,23:00,0.92,0.10,ND
2016/12/11,23:10,0.92,0.10,ND
2016/12/11,23:20,0.90,0.11,ND
2016/12/11,23:30,0.92,0.10,ND
2016/12/11,23:40,0.93,0.085,ND
2016/12/11,23:50,0.78,0.10,ND
